Location: Newark
(56.0692°N, 115.8617°E)
Time: 18:11:41
(UTC+00:00)

Altair - Visible Passes

Search period start: 06 June 2020 00:00
Search period end: 16 June 2020 00:00
Orbit: 1501 x 1683 km, 47.2° (Epoch: 06 June)

Date Brightness Start Highest point End Pass type
(mag) Time Alt. Az. Time Alt. Az. Time Alt. Az.
06 Jun 7.8 14:07:56 10° SW 14:17:15 48° SSE 14:26:47 10° E visible
06 Jun 7.8 16:11:28 10° W 16:21:00 51° S 16:30:39 10° ESE visible
06 Jun 8.1 18:15:46 10° W 18:24:24 34° SSW 18:33:02 10° SSE visible
07 Jun 7.9 13:42:53 10° SW 13:52:08 47° SSE 14:01:36 10° E visible
07 Jun 7.8 15:46:20 10° WSW 15:55:52 51° S 16:05:32 10° ESE visible
07 Jun 8.1 17:50:34 10° W 17:59:19 35° SSW 18:08:06 10° SSE visible
08 Jun 7.8 15:21:12 10° WSW 15:30:44 52° S 15:40:25 10° ESE visible
08 Jun 8.1 17:25:22 10° W 17:34:13 37° SSW 17:43:08 10° SSE visible
09 Jun 7.8 14:56:05 10° WSW 15:05:35 52° S 15:15:17 10° ESE visible
09 Jun 8.0 17:00:11 10° W 17:09:08 38° SSW 17:18:09 10° SE visible
10 Jun 7.8 14:30:58 10° WSW 14:40:27 52° S 14:50:09 10° ESE visible
10 Jun 8.0 16:35:01 10° W 16:44:02 40° SSW 16:53:09 10° SE visible
11 Jun 7.8 14:05:51 10° WSW 14:15:19 52° S 14:25:00 10° ESE visible
11 Jun 8.0 16:09:51 10° W 16:18:56 41° SSW 16:28:08 10° SE visible
11 Jun 8.6 18:15:05 10° W 18:21:40 20° SW 18:28:17 10° S visible
12 Jun 8.0 15:44:41 10° W 15:53:50 42° SSW 16:03:06 10° SE visible
12 Jun 8.6 17:49:44 10° W 17:56:39 21° SW 18:03:37 10° S visible
13 Jun 8.0 15:19:32 10° W 15:28:43 44° SSW 15:38:03 10° SE visible
13 Jun 8.5 17:24:25 10° W 17:31:37 23° SW 17:38:53 10° S visible
14 Jun 8.0 14:54:23 10° W 15:03:36 45° SSW 15:13:00 10° SE visible
14 Jun 8.5 16:59:08 10° W 17:06:36 24° SW 17:14:07 10° S visible
15 Jun 8.0 14:29:15 10° W 14:38:29 46° SSW 14:47:55 10° SE visible
15 Jun 8.5 16:33:52 10° W 16:41:33 26° SW 16:49:19 10° S visible
